Location: Doussal
(55.6167°N, 116.8333°W)
Time: 06:03:26
(UTC+00:00)

METEOR M2 - Pass Details

Date: 08 December 2023
Orbit: 818 x 826 km, 98.4° (Epoch: 25 February)

Event Time Altitude Azimuth Distance (km) Brightness Sun altitude
Rises 12:21:38 0° 24° (NNE) 3,375 ? -29.4°
Reaches altitude 10° 12:24:44 10° 42° (NE) 2,435 ? -29.0°
Maximum altitude 12:28:27 19° 86° (E) 1,887 ? -28.5°
Drops below altitude 10° 12:32:10 10° 130° (SE) 2,419 ? -28.0°
Sets 12:35:13 0° 148° (SSE) 3,345 ? -27.5°
